Location: Krakow
(50.0830°N, 19.9170°E)
Time: 18:32:07
(UTC+01:00)

Vanguard 1 Rocket - Pass Details

Date: 18 December 2023
Orbit: 653 x 4219 km, 34.3° (Epoch: 29 February)

Event Time Altitude Azimuth Distance (km) Brightness Sun altitude
Rises 22:33:27 0° 191° (S) 7,314 - -60.6°
Reaches altitude 10° 22:39:40 10° 179° (S) 6,750 - -61.1°
Maximum altitude 22:56:18 25° 135° (SE) 6,195 - -62.2°
Exits shadow 23:10:26 14° 98° (E) 6,866 11.6 -62.8°
Drops below altitude 10° 23:13:35 10° 92° (E) 7,135 11.8 -62.9°
Sets 23:20:15 0° 81° (E) 7,813 12.2 -63.1°
